Weather History for Harrisburg, IL

Change the Weather History Date:

Thursday, February 21, 2013

  Actual Average (KMWA) Record (KMWA)
Temperature  
Mean Temperature 28 °F -  
Max Temperature 32 °F 51 °F 72 °F (1983)
Min Temperature 23 °F 29 °F 14 °F (1988)
Degree Days  
Heating Degree Days 38    
Moisture  
Dew Point 25 °F    
Average Humidity 85    
Maximum Humidity 100    
Minimum Humidity 64    
Precipitation  
Precipitation 0.00 in - - ()
Sea Level Pressure  
Sea Level Pressure 30.10 in    
Wind  
Wind Speed 8 mph (ENE)    
Max Wind Speed 20 mph    
Max Gust Speed 25 mph    
Visibility 7 miles    
Events Rain , Snow    
Averages and records for this station are not official NWS values.
T = Trace of Precipitation, MM = Missing Value Source: NWS Daily Summary

Daily Weather History Graph

Daily Weather History Graph

Search for Another Location

Airport:

Trip Planner

Search our weather history database for the weather conditions in past years. The results will help you decide how hot, cold, wet, or windy it might be!

Date:

Astronomy

Feb. 21, 2013 Rise Set
Actual Time 6:36 AM CST 5:39 PM CST
Civil Twilight 6:09 AM CST 6:06 PM CST
Nautical Twilight 5:39 AM CST 6:37 PM CST
Astronomical Twilight 5:08 AM CST 7:07 PM CST
Moon 1:57 PM CST (2/21) 3:37 AM CST (2/21)
Length of Visible Light 11h 56m
Length of Day
11h 03m
Waxing Gibbous, 84% of the Moon is Illuminated
Feb 21
Waxing Gibbous
Feb 25
Full
Mar 4
Last Quarter
Mar 11
New
Mar 19
First Quarter

Hourly Weather History & Observations

Time (CST) Temp. Windchill Dew Point Humidity Pressure Visibility Wind Dir Wind Speed Gust Speed Precip Events Conditions
12:15 AM 24.8 °F 16.9 °F 19.4 °F 80% 30.30 in 10.0 mi NE 6.9 mph - N/A   Clear
12:35 AM 24.8 °F 17.9 °F 17.6 °F 74% 30.31 in 10.0 mi NE 5.8 mph - N/A   Clear
12:55 AM 24.8 °F 19.1 °F 17.6 °F 74% 30.31 in 10.0 mi NE 4.6 mph - N/A   Clear
1:15 AM 24.8 °F 16.9 °F 19.4 °F 80% 30.30 in 10.0 mi NE 6.9 mph - N/A   Clear
1:35 AM 24.8 °F 17.9 °F 17.6 °F 74% 30.31 in 10.0 mi NE 5.8 mph - N/A   Clear
1:55 AM 23.0 °F 15.8 °F 17.6 °F 80% 30.29 in 10.0 mi NE 5.8 mph - N/A   Clear
2:15 AM 23.0 °F 14.7 °F 17.6 °F 80% 30.29 in 10.0 mi NNE 6.9 mph - N/A   Clear
2:35 AM 23.0 °F 15.8 °F 19.4 °F 86% 30.29 in 10.0 mi NNE 5.8 mph - N/A   Clear
2:55 AM 23.0 °F 14.7 °F 19.4 °F 86% 30.30 in 10.0 mi NNE 6.9 mph - N/A   Clear
3:15 AM 23.0 °F 14.7 °F 19.4 °F 86% 30.28 in 10.0 mi NE 6.9 mph - N/A   Clear
3:35 AM 24.8 °F 16.9 °F 19.4 °F 80% 30.28 in 10.0 mi NE 6.9 mph - N/A   Clear
3:55 AM 24.8 °F 20.5 °F 19.4 °F 80% 30.29 in 10.0 mi ENE 3.5 mph - N/A   Clear
4:15 AM 24.8 °F 17.9 °F 19.4 °F 80% 30.28 in 10.0 mi ENE 5.8 mph - N/A   Clear
4:35 AM 24.8 °F 16.9 °F 19.4 °F 80% 30.28 in 10.0 mi ENE 6.9 mph - N/A   Clear
4:55 AM 24.8 °F 16.9 °F 19.4 °F 80% 30.28 in 10.0 mi ENE 6.9 mph - N/A   Clear
5:15 AM 24.8 °F 16.1 °F 19.4 °F 80% 30.28 in 10.0 mi East 8.1 mph - N/A   Clear
5:35 AM 24.8 °F 16.9 °F 19.4 °F 80% 30.28 in 10.0 mi East 6.9 mph - N/A   Clear
5:55 AM 24.8 °F 16.9 °F 19.4 °F 80% 30.27 in 10.0 mi East 6.9 mph - N/A   Clear
6:15 AM 24.8 °F 15.3 °F 19.4 °F 80% 30.25 in 10.0 mi ENE 9.2 mph - N/A   Clear
6:35 AM 24.8 °F 14.6 °F 19.4 °F 80% 30.25 in 10.0 mi East 10.4 mph - N/A   Clear
6:55 AM 24.8 °F 15.3 °F 19.4 °F 80% 30.26 in 10.0 mi ENE 9.2 mph - N/A   Clear
7:15 AM 26.6 °F 16.2 °F 19.4 °F 74% 30.24 in 10.0 mi East 11.5 mph - N/A   Clear
7:35 AM 26.6 °F 16.2 °F 19.4 °F 74% 30.26 in 10.0 mi East 11.5 mph - N/A   Scattered Clouds
7:55 AM 26.6 °F 16.2 °F 19.4 °F 74% 30.24 in 10.0 mi East 11.5 mph 18.4 mph N/A   Mostly Cloudy
8:15 AM 28.4 °F 17.0 °F 19.4 °F 69% 30.24 in 10.0 mi East 15.0 mph 19.6 mph N/A   Scattered Clouds
8:35 AM 28.4 °F 18.5 °F 21.2 °F 74% 30.25 in 10.0 mi East 11.5 mph - N/A   Clear
8:55 AM 28.4 °F 18.5 °F 19.4 °F 69% 30.26 in 10.0 mi East 11.5 mph 17.3 mph N/A   Mostly Cloudy
9:15 AM 28.4 °F 17.0 °F 19.4 °F 69% 30.23 in 10.0 mi East 15.0 mph - N/A   Overcast
9:35 AM 30.2 °F 19.8 °F 19.4 °F 64% 30.25 in 10.0 mi East 13.8 mph - N/A   Overcast
9:55 AM 30.2 °F 18.9 °F 19.4 °F 64% 30.21 in 10.0 mi ENE 16.1 mph - N/A   Overcast
10:15 AM 30.2 °F 18.5 °F 21.2 °F 69% 30.17 in 10.0 mi ENE 17.3 mph 25.3 mph N/A   Mostly Cloudy
10:35 AM 30.2 °F 18.5 °F 19.4 °F 64% 30.20 in 10.0 mi ENE 17.3 mph - N/A   Mostly Cloudy
10:55 AM 30.2 °F 20.2 °F 21.2 °F 69% 30.20 in 10.0 mi East 12.7 mph - N/A   Overcast
11:15 AM 30.2 °F 18.9 °F 21.2 °F 69% 30.16 in 3.0 mi East 16.1 mph - N/A Snow Light Snow
11:35 AM 30.2 °F 18.9 °F 23.0 °F 75% 30.15 in 10.0 mi East 16.1 mph 21.9 mph N/A   Scattered Clouds
11:55 AM 30.2 °F 19.3 °F 23.0 °F 75% 30.11 in 10.0 mi East 15.0 mph - N/A   Scattered Clouds
12:15 PM 30.2 °F 18.1 °F 23.0 °F 75% 30.07 in 7.0 mi East 18.4 mph - N/A   Mostly Cloudy
12:35 PM 30.2 °F 17.8 °F 23.0 °F 75% 30.04 in 10.0 mi East 19.6 mph - N/A   Mostly Cloudy
12:55 PM 30.2 °F 18.9 °F 23.0 °F 75% 30.03 in 10.0 mi East 16.1 mph 21.9 mph N/A   Mostly Cloudy
1:15 PM 30.2 °F 18.9 °F 24.8 °F 80% 30.01 in 10.0 mi East 16.1 mph 24.2 mph N/A   Overcast
1:35 PM 30.2 °F 20.2 °F 26.6 °F 86% 30.02 in 7.0 mi East 12.7 mph 19.6 mph N/A   Overcast
1:55 PM 30.2 °F 21.3 °F 26.6 °F 86% 30.03 in 5.0 mi ENE 10.4 mph - N/A   Overcast
2:15 PM 32.0 °F 27.5 °F 26.6 °F 80% 30.10 in 4.0 mi North 4.6 mph - N/A Snow Light Snow
2:35 PM 32.0 °F 25.6 °F 26.6 °F 80% 30.14 in 4.0 mi NNE 6.9 mph - N/A Snow Light Snow
2:55 PM 30.2 °F 21.9 °F 28.4 °F 93% 30.10 in 2.0 mi NNE 9.2 mph - N/A Snow Light Snow
3:15 PM 30.2 °F 20.8 °F 28.4 °F 93% 30.08 in 3.0 mi NE 11.5 mph - N/A Snow Light Snow
3:35 PM 30.2 °F 20.2 °F 28.4 °F 93% 30.08 in 4.0 mi NE 12.7 mph - N/A Snow Light Snow
3:55 PM 30.2 °F 19.8 °F 30.2 °F 100% 30.05 in - NE 13.8 mph - N/A   Unknown
4:15 PM 32.0 °F 22.5 °F 30.2 °F 93% 30.03 in 2.0 mi ENE 12.7 mph 18.4 mph N/A Rain Rain
4:35 PM 32.0 °F 23.6 °F 30.2 °F 93% 30.01 in 2.0 mi East 10.4 mph - N/A Snow Light Snow
4:55 PM 32.0 °F 23.6 °F 30.2 °F 93% 29.95 in 2.5 mi East 10.4 mph - N/A Snow Light Snow
5:15 PM 32.0 °F 25.6 °F 30.2 °F 93% 29.92 in 2.5 mi East 6.9 mph - N/A Rain Light Rain
5:35 PM 32.0 °F 25.6 °F 32.0 °F 100% 29.92 in 3.0 mi East 6.9 mph - N/A   Overcast
5:55 PM 32.0 °F 25.6 °F 32.0 °F 100% 29.87 in 2.0 mi East 6.9 mph - N/A Snow Light Snow
6:15 PM 32.0 °F 27.5 °F 30.2 °F 93% 29.92 in 7.0 mi East 4.6 mph - N/A Rain Light Rain
6:35 PM 32.0 °F 26.4 °F 32.0 °F 100% 29.92 in 4.0 mi East 5.8 mph - N/A Rain Light Rain
6:55 PM 32.0 °F - 32.0 °F 100% 29.93 in 3.0 mi Calm Calm - N/A Rain Light Rain
7:15 PM 32.0 °F 28.7 °F 32.0 °F 100% 29.93 in 5.0 mi ESE 3.5 mph - N/A Rain Light Rain
7:35 PM 32.0 °F 27.5 °F 32.0 °F 100% 29.92 in 5.0 mi East 4.6 mph - N/A Rain Rain
7:55 PM 32.0 °F 28.7 °F 32.0 °F 100% 29.93 in 4.0 mi East 3.5 mph - N/A   Drizzle
8:15 PM 32.0 °F 28.7 °F 32.0 °F 100% 29.92 in 2.5 mi ESE 3.5 mph - N/A Rain Heavy Rain
8:35 PM 32.0 °F 27.5 °F 32.0 °F 100% 29.90 in 3.0 mi East 4.6 mph - N/A Rain Rain
8:55 PM 32.0 °F 28.7 °F 32.0 °F 100% 29.88 in 4.0 mi ESE 3.5 mph - N/A Rain Light Rain
9:15 PM 32.0 °F 28.7 °F 32.0 °F 100% 29.88 in 5.0 mi ESE 3.5 mph - N/A Rain Light Rain
9:35 PM 32.0 °F 28.7 °F 32.0 °F 100% 29.86 in 3.0 mi ESE 3.5 mph - N/A Rain Light Rain
9:55 PM 32.0 °F 28.7 °F 32.0 °F 100% 29.85 in 5.0 mi ESE 3.5 mph - N/A   Overcast
10:15 PM 32.0 °F 28.7 °F 32.0 °F 100% 29.86 in 7.0 mi ESE 3.5 mph - N/A   Overcast
10:35 PM 32.0 °F 27.5 °F 32.0 °F 100% 29.85 in 10.0 mi ESE 4.6 mph - N/A   Overcast
10:55 PM 32.0 °F 28.7 °F 32.0 °F 100% 29.85 in 7.0 mi ESE 3.5 mph - N/A Rain Rain
11:15 PM 32.0 °F - 32.0 °F 100% 29.85 in 3.0 mi Calm Calm - N/A   Drizzle
11:35 PM 32.0 °F - 32.0 °F 100% 29.85 in 2.5 mi Calm Calm - N/A   Drizzle
11:55 PM 32.0 °F - 32.0 °F 100% 29.83 in 2.5 mi Calm Calm - N/A Rain Light Rain